Погода в Претории

ЮАР     25°44′23″S   28°13′13″E
темп.,
°C
ветер,
м/с
пор.,
м/с
влажн.,
%
обл.,
%
осадки,
мм/ч
давл.,
гПа
погр.,
м
11 мая, вт
вт1123:00+17в11310 0.0 102313
02:00+16ююв11330 0.0 102213
05:00+15ююв11340 0.0 102316
08:00+16вюв11320 0.0 1025115
11:00+21ссз22250 0.0 10241001
14:00+24сз23190 0.0 10211529
17:00+23ссз33200 0.0 1020671
20:00+19сз11260 0.0 102315
12 мая, ср
ср1223:00+18зюз00290 0.0 102311
02:00+16юз11310 0.0 102211
05:00+15ююз11330 0.0 102211
08:00+17вюв01290 0.0 102365
11:00+22зсз22200 0.0 1022916
14:00+26з22140 0.0 10181787
17:00+25сз22140 0.0 1018631
20:00+20ююз01210 0.0 102011
13 мая, чт
чт1323:00+19ююв11230 0.0 102012
02:00+17юв22250 0.0 102043
05:00+15юв22270 0.0 102138
08:00+17юв23260 0.0 1022118
11:00+23ссв11170 0.0 1021717
14:00+25с33140 0.0 10181963
17:00+24с32160 0.0 10181393
20:00+20св12210 0.0 101924
14 мая, пт
пт1423:00+18ссв11240 0.0 102012
02:00+16в11320 0.0 101913
05:00+15св11370 0.0 102011
08:00+16всв11360 0.0 1022121
11:00+22зсз22240 0.0 1019907
14:00+25сз22150 0.0 10161881
17:00+23ссз32160 0.0 10161189
20:00+20зсз13230 0.0 101873
15 мая, сб
сб1523:00+18юз11250 0.0 101811
02:00+16з11280 0.0 101712
05:00+15ююз11310 0.0 101711
08:00+17сз01270 0.0 101976
11:00+22сз34200 0.0 10171668
14:00+24зсз45170 0.0 10142503
17:00
20:00+20зсз26200 0.0 1016197